Hourly Data Report for September 15, 2017

All times are specified in Local Standard Time (LST). Add 1 hour to adjust for Daylight Saving Time where and when it is observed.

BAS CARAQUET
NEW BRUNSWICK

47°48'08.000" N
64°50'00.000" W
5.00 m
8100467
71598
WXS

Download Data

Hourly Data (September 2017)
Hourly Data Report for September 15, 2017
Temp Definition
°C
Dew Point Temp Definition
°C
Rel Hum Definition
%
Wind Dir Definition
10's deg

Wind Spd Definition
km/h
Visibility Definition
km
Stn Press Definition
kPa
Hmdx Definition


Wind Chill Definition


Weather Definition


TIME
00:00 8.0 7.6 98   0   101.37     LegendNANA
01:00 7.2 6.8 98 24 2   101.45     LegendNANA
02:00 7.4 7.2 98 0 1   101.52     LegendNANA
03:00 7.8 7.6 98 5 2   101.57     LegendNANA
04:00 6.4 6.0 97   0   101.63     LegendNANA
05:00 7.9 7.6 99 36 6   101.73     LegendNANA
06:00 8.6 7.3 91 1 4   101.80     LegendNANA
07:00 9.9 8.3 90 1 3   101.85     LegendNANA
08:00 13.1 9.6 80 36 5   101.94     LegendNANA
09:00 14.6 7.4 62 2 4   102.04     LegendNANA
10:00 15.7 8.6 63 36 4   102.05     LegendNANA
11:00 15.9 7.0 56 33 8   102.05     LegendNANA
12:00 16.8 6.7 51 1 6   102.02     LegendNANA
13:00 16.9 9.2 61 36 5   102.00     LegendNANA
14:00 17.1 9.5 61 35 7   101.97     LegendNANA
15:00 17.8 9.8 60 4 7   101.94     LegendNANA
16:00 17.3 10.4 64 16 8   101.94     LegendNANA
17:00 16.2 10.4 68 14 11   101.96     LegendNANA
18:00 15.0 10.6 75 15 7   101.97     LegendNANA
19:00 13.8 10.7 81 16 9   101.96     LegendNANA
20:00 13.5 11.3 87 17 7   101.98     LegendNANA
21:00 13.2 11.8 92 17 7   101.94     LegendNANA
22:00 13.2 12.0 93 18 7   101.92     LegendNANA
23:00 13.7 12.4 92 19 9   101.88     LegendNANA

Notes on Data Quality.

Legend

  • E = Estimated
  • M = Missing
  • NA = Not Available
  • ‡ = Partner data that is not subject to review by the National Climate Archives
Date modified: